Weather History for Watertown, NY

Change the Weather History Date:

Wednesday, March 12, 2014

  Actual Average Record
Temperature  
Mean Temperature 24 °F 29 °F  
Max Temperature 36 °F 39 °F 65 °F (2012)
Min Temperature 11 °F 19 °F -24 °F (1984)
Degree Days  
Heating Degree Days 41 36  
Month to date heating degree days 597 460  
Since 1 July heating degree days 6268 5901  
Cooling Degree Days 0 0  
Month to date cooling degree days 0 0  
Year to date cooling degree days 0 0  
Moisture  
Dew Point 16 °F    
Average Humidity 69    
Maximum Humidity 81    
Minimum Humidity 56    
Precipitation  
Precipitation 0.05 in 0.08 in 0.74 in (1990)
Month to date precipitation 0.16 0.90  
Year to date precipitation 7.26 5.78  
Sea Level Pressure  
Sea Level Pressure 29.57 in    
Wind  
Wind Speed 20 mph (NNE)    
Max Wind Speed 35 mph    
Max Gust Speed 45 mph    
Visibility 2 miles    
Events Snow    
T = Trace of Precipitation, MM = Missing Value Source: NWS Daily Summary

Daily Weather History Graph

Daily Weather History Graph

Search for Another Location

Airport:

Trip Planner

Search our weather history database for the weather conditions in past years. The results will help you decide how hot, cold, wet, or windy it might be!

Date:

Astronomy

Mar. 12, 2014 Rise Set
Actual Time 7:21 AM EDT 7:06 PM EDT
Civil Twilight 6:53 AM EDT 7:35 PM EDT
Nautical Twilight 6:19 AM EDT 8:08 PM EDT
Astronomical Twilight 5:45 AM EDT 8:42 PM EDT
Moon 3:29 PM EDT (3/12) 4:58 AM EDT (3/12)
Length of Visible Light 12h 42m
Length of Day
11h 44m
Waxing Gibbous, 85% of the Moon is Illuminated
Mar 12
Waxing Gibbous
Mar 16
Full
Mar 23
Last Quarter
Mar 30
New
Apr 7
First Quarter

Hourly Weather History & Observations

Time (EDT) Temp. Windchill Dew Point Humidity Pressure Visibility Wind Dir Wind Speed Gust Speed Precip Events Conditions
12:56 AM 36.0 °F 30.3 °F 27.0 °F 70% 29.71 in 8.0 mi NNE 6.9 mph - N/A   Overcast
1:56 AM 35.1 °F 28.6 °F 27.0 °F 72% 29.71 in 9.0 mi ENE 8.1 mph - N/A   Overcast
2:56 AM 36.0 °F 30.3 °F 26.1 °F 67% 29.71 in 10.0 mi ENE 6.9 mph - N/A   Overcast
3:56 AM 35.1 °F 29.3 °F 26.1 °F 70% 29.72 in 10.0 mi North 6.9 mph - N/A   Overcast
4:56 AM 35.1 °F 27.4 °F 25.0 °F 67% 29.71 in 10.0 mi NE 10.4 mph - N/A   Overcast
5:56 AM 34.0 °F 25.0 °F 25.0 °F 70% 29.71 in 10.0 mi NNE 12.7 mph - N/A   Overcast
6:56 AM 33.1 °F 23.0 °F 21.9 °F 64% 29.69 in 10.0 mi NE 15.0 mph - N/A   Overcast
7:56 AM 33.1 °F 21.2 °F 19.0 °F 56% 29.68 in 10.0 mi NE 20.7 mph - N/A   Overcast
8:56 AM 30.0 °F 16.3 °F 21.0 °F 69% 29.68 in 2.5 mi NE 24.2 mph 32.2 mph 0.00 in Snow Light Snow
9:06 AM 30.0 °F 16.9 °F 21.0 °F 69% 29.67 in 1.2 mi NE 21.9 mph 31.1 mph 0.00 in Snow Light Snow
9:13 AM 30.0 °F 17.5 °F 21.9 °F 72% 29.67 in 1.0 mi NE 19.6 mph 28.8 mph 0.00 in Snow Light Snow
9:23 AM 28.9 °F 15.4 °F 21.9 °F 75% 29.66 in 0.5 mi NE 21.9 mph 31.1 mph 0.00 in Snow Snow
9:49 AM 28.9 °F 16.9 °F 21.9 °F 75% 29.67 in 0.5 mi NNE 17.3 mph 29.9 mph 0.00 in Snow Snow
9:56 AM 28.0 °F 14.3 °F 21.9 °F 78% 29.69 in 0.5 mi NNE 21.9 mph 27.6 mph 0.00 in Snow Snow
10:05 AM 28.0 °F 14.6 °F 21.9 °F 78% 29.67 in 0.2 mi NNE 20.7 mph 29.9 mph 0.00 in Snow Heavy Snow
10:56 AM 27.0 °F 12.5 °F 21.0 °F 78% 29.67 in 0.2 mi NNE 23.0 mph 32.2 mph 0.01 in Snow Heavy Snow
11:06 AM 27.0 °F 11.9 °F 21.0 °F 78% 29.64 in 0.2 mi NNE 25.3 mph 34.5 mph 0.00 in Snow Heavy Snow
11:56 AM 26.1 °F 10.4 °F 19.0 °F 75% 29.62 in 0.2 mi NE 26.5 mph 39.1 mph 0.00 in Snow Heavy Snow
12:22 PM 26.1 °F 11.0 °F 19.9 °F 78% 29.58 in 0.5 mi NNE 24.2 mph 38.0 mph 0.00 in Snow Snow
12:30 PM 26.1 °F 10.7 °F 19.0 °F 75% 29.58 in 0.5 mi NE 25.3 mph 42.6 mph 0.00 in Snow Snow
12:51 PM 24.8 °F 8.4 °F 19.4 °F 80% 29.56 in 0.2 mi NNE 27.6 mph 33.4 mph 0.00 in Snow Heavy Snow
12:56 PM 24.1 °F 7.4 °F 18.0 °F 77% 29.57 in 0.2 mi NNE 27.6 mph 33.4 mph 0.00 in Snow Heavy Snow
1:40 PM 23.0 °F 6.3 °F 16.0 °F 74% 29.49 in 0.2 mi NNE 26.5 mph 41.4 mph 0.00 in Snow Heavy Snow
1:56 PM 21.9 °F 6.9 °F 16.0 °F 78% 29.51 in 0.2 mi NNE 19.6 mph 36.8 mph 0.00 in Snow Heavy Snow
2:27 PM 21.9 °F 6.2 °F 16.0 °F 78% 29.46 in 0.2 mi NNE 21.9 mph 36.8 mph 0.01 in Snow Heavy Snow
2:46 PM 21.0 °F 2.7 °F 15.1 °F 78% 29.44 in 0.2 mi NNE 29.9 mph 36.8 mph 0.01 in Snow Heavy Snow
2:56 PM 19.9 °F 1.5 °F 14.0 °F 78% 29.46 in 0.2 mi NNE 28.8 mph 46.0 mph 0.01 in Snow Heavy Snow
3:14 PM 19.9 °F 1.0 °F 14.0 °F 78% 29.45 in 0.2 mi NNE 31.1 mph 43.7 mph 0.00 in Snow Heavy Snow
3:35 PM 19.0 °F -0.3 °F 12.9 °F 77% 29.44 in 0.2 mi NNE 31.1 mph 40.3 mph 0.01 in Snow Heavy Snow
3:56 PM 19.0 °F 2.0 °F 12.9 °F 77% 29.44 in 0.2 mi NNE 23.0 mph 40.3 mph 0.01 in Snow Blowing Snow
4:36 PM 18.0 °F -1.1 °F 12.9 °F 81% 29.42 in 0.2 mi NNE 28.8 mph 38.0 mph 0.01 in Snow Heavy Snow
4:53 PM 17.6 °F -0.6 °F 12.2 °F 79% 29.43 in 0.2 mi NNE 25.3 mph 33.4 mph 0.01 in Snow Heavy Snow
4:56 PM 18.0 °F 0.2 °F 12.0 °F 78% 29.46 in 0.2 mi NNE 24.2 mph 33.4 mph 0.01 in Snow Heavy Snow
5:56 PM 18.0 °F 0.2 °F 12.0 °F 78% 29.48 in 0.2 mi NNE 24.2 mph 33.4 mph 0.01 in   Unknown
6:35 PM 17.1 °F -1.7 °F 10.9 °F 77% 29.46 in 0.2 mi NNE 26.5 mph 39.1 mph 0.00 in   Unknown
6:41 PM 17.1 °F -1.7 °F 10.9 °F 77% 29.46 in 0.5 mi NNE 26.5 mph 39.1 mph 0.00 in Snow Blowing Snow
6:48 PM 17.1 °F -3.5 °F 10.0 °F 74% 29.47 in 0.2 mi NNE 33.4 mph 41.4 mph 0.00 in Snow Blowing Snow
6:56 PM 17.1 °F -0.3 °F 10.0 °F 74% 29.49 in 0.2 mi NNE 21.9 mph 40.3 mph 0.00 in Snow Blowing Snow
7:04 PM 17.1 °F -0.3 °F 10.9 °F 77% 29.48 in 0.5 mi NNE 21.9 mph 29.9 mph 0.00 in Snow Snow
7:21 PM 17.1 °F -0.3 °F 10.0 °F 74% 29.50 in 1.0 mi NNE 21.9 mph 31.1 mph 0.00 in Snow Light Snow
7:56 PM 16.0 °F -3.8 °F 9.0 °F 74% 29.52 in 1.0 mi North 28.8 mph 35.7 mph 0.00 in Snow Light Snow
8:31 PM 15.1 °F -3.7 °F 8.1 °F 74% 29.53 in 1.0 mi NNE 24.2 mph 32.2 mph 0.00 in Snow Light Snow
8:44 PM 15.1 °F -2.0 °F 8.1 °F 74% 29.53 in 1.0 mi North 19.6 mph 32.2 mph 0.00 in Snow Light Snow
8:56 PM 15.1 °F -2.0 °F 7.0 °F 70% 29.57 in 1.0 mi NNE 19.6 mph 32.2 mph 0.00 in   Unknown
9:46 PM 14.0 °F -4.3 °F 7.0 °F 74% 29.56 in 0.8 mi North 21.9 mph 27.6 mph 0.00 in Snow Light Snow
9:56 PM 14.0 °F -3.4 °F 7.0 °F 74% 29.60 in 0.8 mi North 19.6 mph 26.5 mph 0.00 in Snow Light Snow
10:56 PM 12.9 °F -3.9 °F 6.1 °F 74% 29.63 in 0.8 mi North 17.3 mph 25.3 mph 0.00 in Snow Light Snow
11:09 PM 12.0 °F -6.5 °F 6.1 °F 77% 29.61 in 1.0 mi North 20.7 mph - 0.00 in Snow Light Snow
11:46 PM 12.0 °F -5.1 °F 3.9 °F 70% 29.61 in 2.0 mi North 17.3 mph 25.3 mph 0.00 in Snow Light Snow
11:56 PM 10.9 °F -8.3 °F 3.0 °F 70% 29.65 in 2.0 mi North 21.9 mph 31.1 mph 0.00 in Snow Light Snow